Skip Page Navigation
NASA JPL Caltech
NASA Logo - Jet Propulsion Laboratory + View the NASA Portal
+ Center for Near-Earth Object Studies
JPL Home Earth Solar System Stars & Galaxies Technology
JPL Solar System Dynamics
BODIES ORBITS EPHEMERIDES TOOLS PHYSICAL DATA DISCOVERY FAQ SITE MAP
IMPORTANT: The SSD Announcement email list is now available. Major changes are coming in the near future, including possible hostname and/or URL changes. To be notified of such changes, subscribe to this email list.

Please visit this page for more details.


JPL Small-Body Database Browser
Search: [ help ]  
245694 (2006 BQ167)
Classification: Main-belt Asteroid          SPK-ID: 2245694
Ephemeris | Orbit Diagram | Orbital Elements | Mission Design | Physical Parameters | Discovery Circumstances | Close-Approach Data ]

[ show orbit diagram ]
Orbital Elements at Epoch 2459000.5 (2020-May-31.0) TDB
Reference: JPL 15 (heliocentric ecliptic J2000)
 Element Value Uncertainty (1-sigma)   Units 
e .1356918388521319 4.5502e-08  
a 2.26205423709058 1.5286e-08 au
q 1.955111938076503 1.017e-07 au
i 3.47301513770654 6.0408e-06 deg
node 331.0203572455308 7.1345e-05 deg
peri 300.1412462497879 7.4026e-05 deg
M 322.5050960244092 2.0164e-05 deg
tp 2459129.926346662528
(2020-Oct-07.42634666)
6.9927e-05 TDB
period 1242.661798223098
3.40
1.2596e-05
3.449e-08
d
yr
n .2897007057871819 2.9365e-09 deg/d
Q 2.568996536104657 1.736e-08 au
  Orbit Determination Parameters
   # obs. used (total)      225  
   data-arc span      5725 days (15.67 yr)  
   first obs. used      2003-04-29  
   last obs. used      2018-12-31  
   planetary ephem.      DE431  
   SB-pert. ephem.      SB431-N16  
   condition code      0  
   norm. resid. RMS      .57754  
   source      ORB  
   producer      Otto Matic  
   solution date      2019-Jul-14 06:47:02  

Additional Information
 Earth MOID = .941736 au 
 Jupiter MOID = 2.52777 au 
 T_jup = 3.604 
[ show covariance matrix ]

Ephemeris | Orbit Diagram | Orbital Elements | Mission Design | Physical Parameters | Discovery Circumstances | Close-Approach Data ]

Physical Parameter Table
Parameter Symbol Value Units Sigma Reference Notes
absolute magnitude H 17.1   n/a MPO422954  

245694 (2006 BQ167)          Discovered 2006-Jan-26 by Mt. Lemmon Survey at Mount Lemmon
Reference: 20100726/Numbers.arcLast Updated: 2010-07-28

[ show close-approach data ]
Ephemeris | Orbit Diagram | Orbital Elements | Mission Design | Physical Parameters | Discovery Circumstances | Close-Approach Data ]
ABOUT SSD CREDITS/AWARDS PRIVACY/COPYRIGHT GLOSSARY LINKS
FirstGov 2020-Apr-07 05:25 UT
(server date/time)  
NASA Home Page
Site Manager:   Ryan S. Park
Webmaster  Alan B. Chamberlin